When you browse on this site, cookies collect data to enhance your experience and personalize the content and advertising you see.
Visit our Privacy Policy to learn more. By continuing to use the site, you agree to this use of cookies and data.
  • en Suisse
  • Liste des pays
  • À 7 jours
  • Température de l'eau
  • Carte météo
  • Widgets météo
  • user-avatar
    Se connecter

    Météo par heure à Melbourne

    Ce jour, 21 Août, Mercredi

    Heure Température Précipitation Vent Pression Humidité
    00:00 +12°C° 0 mm 5 m/s 762 mmHg 75%
    01:00 +12°C° 0 mm 5 m/s 761 mmHg 75%
    02:00 +12°C° 0.1 mm 5 m/s 761 mmHg 76%
    03:00 +12°C° 0.1 mm 5 m/s 761 mmHg 77%
    04:00 +12°C° 0 mm 5 m/s 761 mmHg 78%
    05:00 +12°C° 0.1 mm 5 m/s 761 mmHg 79%
    06:00 +12°C° 0.1 mm 5 m/s 761 mmHg 79%
    07:00 +12°C° 0.1 mm 5 m/s 761 mmHg 80%
    08:00 +11°C° 0.1 mm 6 m/s 762 mmHg 75%
    09:00 +13°C° 0.1 mm 6 m/s 762 mmHg 70%
    10:00 +14°C° 0 mm 6 m/s 763 mmHg 67%
    11:00 +14°C° 0 mm 6 m/s 762 mmHg 63%
    12:00 +15°C° 0 mm 6 m/s 762 mmHg 60%
    13:00 +15°C° 0 mm 6 m/s 762 mmHg 57%
    14:00 +15°C° 0.1 mm 6 m/s 762 mmHg 58%
    15:00 +14°C° 0.1 mm 6 m/s 762 mmHg 60%
    16:00 +13°C° 0.1 mm 6 m/s 762 mmHg 62%
    17:00 +13°C° 0 mm 6 m/s 761 mmHg 64%
    18:00 +13°C° 0 mm 5 m/s 761 mmHg 66%
    19:00 +12°C° 0 mm 5 m/s 761 mmHg 68%
    20:00 +11°C° 0.1 mm 6 m/s 761 mmHg 71%
    21:00 +11°C° 0.1 mm 7 m/s 761 mmHg 74%
    22:00 +11°C° 0.1 mm 7 m/s 761 mmHg 77%
    23:00 +11°C° 0.1 mm 7 m/s 761 mmHg 76%

    Demain, 22 Août, Jeudi

    Heure Température Précipitation Vent Pression Humidité
    00:00 +11°C° 0.1 mm 7 m/s 761 mmHg 75%
    01:00 +11°C° 0.1 mm 7 m/s 761 mmHg 74%
    02:00 +10°C° 0.1 mm 7 m/s 761 mmHg 74%
    03:00 +10°C° 0.1 mm 7 m/s 762 mmHg 75%
    04:00 +9°C° 0.1 mm 6 m/s 762 mmHg 75%
    05:00 +9°C° 0.1 mm 6 m/s 763 mmHg 73%
    06:00 +8°C° 0.1 mm 6 m/s 763 mmHg 70%
    07:00 +7°C° 0.1 mm 6 m/s 764 mmHg 68%
    08:00 +8°C° 0 mm 6 m/s 765 mmHg 65%
    09:00 +9°C° 0 mm 6 m/s 765 mmHg 62%
    10:00 +9°C° 0 mm 7 m/s 766 mmHg 59%
    11:00 +10°C° 0 mm 6 m/s 766 mmHg 57%
    12:00 +10°C° 0 mm 6 m/s 766 mmHg 55%
    13:00 +11°C° 0 mm 6 m/s 766 mmHg 52%
    14:00 +12°C° 0 mm 5 m/s 766 mmHg 53%
    15:00 +10°C° 0 mm 5 m/s 766 mmHg 54%
    16:00 +10°C° 0 mm 5 m/s 766 mmHg 55%
    17:00 +10°C° 0 mm 4 m/s 767 mmHg 61%
    18:00 +9°C° 0 mm 3 m/s 767 mmHg 66%
    19:00 +8°C° 0 mm 2 m/s 768 mmHg 71%
    20:00 +7°C° 0 mm 2 m/s 768 mmHg 74%
    21:00 +7°C° 0 mm 2 m/s 768 mmHg 76%
    22:00 +7°C° 0 mm 1 m/s 769 mmHg 78%
    23:00 +7°C° 0 mm 1 m/s 768 mmHg 79%

    Après-demain, 23 Août, Vendredi

    Heure Température Précipitation Vent Pression Humidité
    00:00 +7°C° 0 mm 1 m/s 768 mmHg 80%
    01:00 +6°C° 0 mm 1 m/s 768 mmHg 81%
    02:00 +6°C° 0 mm 1 m/s 768 mmHg 82%
    03:00 +6°C° 0 mm 1 m/s 767 mmHg 82%
    04:00 +6°C° 0 mm 1 m/s 767 mmHg 83%
    05:00 +4°C° 0 mm 2 m/s 767 mmHg 83%
    06:00 +4°C° 0 mm 2 m/s 767 mmHg 83%
    07:00 +4°C° 0 mm 2 m/s 767 mmHg 83%
    08:00 +6°C° 0 mm 2 m/s 767 mmHg 76%
    09:00 +9°C° 0 mm 2 m/s 767 mmHg 69%
    10:00 +12°C° 0 mm 2 m/s 767 mmHg 62%
    11:00 +12°C° 0 mm 3 m/s 766 mmHg 59%
    12:00 +14°C° 0 mm 4 m/s 765 mmHg 56%
    13:00 +15°C° 0 mm 4 m/s 764 mmHg 52%
    14:00 +15°C° 0 mm 5 m/s 764 mmHg 54%
    15:00 +15°C° 0 mm 5 m/s 764 mmHg 56%
    16:00 +14°C° 0 mm 6 m/s 763 mmHg 58%
    17:00 +13°C° 0 mm 5 m/s 763 mmHg 62%
    18:00 +12°C° 0 mm 5 m/s 763 mmHg 67%
    19:00 +11°C° 0 mm 4 m/s 764 mmHg 71%
    20:00 +9°C° 0 mm 5 m/s 763 mmHg 71%
    21:00 +9°C° 0 mm 5 m/s 763 mmHg 71%
    22:00 +9°C° 0 mm 5 m/s 763 mmHg 71%
    23:00 +8°C° 0 mm 5 m/s 763 mmHg 70%

    24 Août, Samedi

    Heure Température Précipitation Vent Pression Humidité
    00:00 +8°C° 0 mm 6 m/s 762 mmHg 70%
    01:00 +8°C° 0 mm 6 m/s 762 mmHg 69%
    02:00 +7°C° 0 mm 6 m/s 761 mmHg 69%
    03:00 +7°C° 0 mm 6 m/s 761 mmHg 68%
    04:00 +6°C° 0 mm 7 m/s 761 mmHg 67%
    05:00 +6°C° 0 mm 7 m/s 761 mmHg 67%
    06:00 +6°C° 0 mm 7 m/s 761 mmHg 66%
    07:00 +6°C° 0 mm 7 m/s 761 mmHg 66%
    08:00 +8°C° 0 mm 7 m/s 760 mmHg 63%
    09:00 +9°C° 0 mm 8 m/s 760 mmHg 60%
    10:00 +11°C° 0 mm 8 m/s 760 mmHg 57%
    11:00 +12°C° 0 mm 8 m/s 759 mmHg 55%
    12:00 +14°C° 0 mm 7 m/s 759 mmHg 54%
    13:00 +15°C° 0 mm 7 m/s 758 mmHg 53%
    14:00 +15°C° 0 mm 7 m/s 758 mmHg 54%
    15:00 +16°C° 0 mm 6 m/s 758 mmHg 56%
    16:00 +16°C° 0 mm 6 m/s 757 mmHg 57%
    17:00 +14°C° 1.8 mm 5 m/s 758 mmHg 68%
    18:00 +12°C° 1.8 mm 4 m/s 759 mmHg 78%
    19:00 +10°C° 1.8 mm 4 m/s 760 mmHg 89%
    20:00 +8°C° 0.4 mm 4 m/s 761 mmHg 87%
    21:00 +8°C° 0.4 mm 4 m/s 762 mmHg 86%
    22:00 +8°C° 0.4 mm 4 m/s 762 mmHg 85%
    23:00 +8°C° 0.1 mm 3 m/s 763 mmHg 85%

    25 Août, Dimanche

    Heure Température Précipitation Vent Pression Humidité
    00:00 +8°C° 0.1 mm 3 m/s 763 mmHg 84%
    01:00 +8°C° 0.1 mm 3 m/s 763 mmHg 84%
    02:00 +7°C° 0.1 mm 3 m/s 763 mmHg 84%
    03:00 +5°C° 0.1 mm 3 m/s 763 mmHg 84%
    04:00 +5°C° 0.1 mm 3 m/s 763 mmHg 84%
    05:00 +5°C° 0 mm 3 m/s 764 mmHg 83%
    06:00 +5°C° 0 mm 2 m/s 764 mmHg 82%
    07:00 +5°C° 0 mm 2 m/s 765 mmHg 82%
    08:00 +7°C° 0 mm 2 m/s 765 mmHg 77%
    09:00 +8°C° 0 mm 2 m/s 765 mmHg 73%
    10:00 +9°C° 0 mm 3 m/s 765 mmHg 68%
    11:00 +10°C° 0 mm 3 m/s 765 mmHg 65%
    12:00 +10°C° 0 mm 3 m/s 765 mmHg 62%
    13:00 +11°C° 0 mm 4 m/s 765 mmHg 59%
    14:00 +10°C° 0 mm 4 m/s 765 mmHg 58%
    15:00 +10°C° 0 mm 4 m/s 765 mmHg 57%
    16:00 +10°C° 0 mm 4 m/s 765 mmHg 57%
    17:00 +9°C° 0 mm 3 m/s 765 mmHg 60%
    18:00 +8°C° 0 mm 2 m/s 766 mmHg 64%
    19:00 +8°C° 0 mm 2 m/s 767 mmHg 68%
    20:00 +8°C° 0 mm 1 m/s 767 mmHg 71%
    21:00 +7°C° 0 mm 1 m/s 767 mmHg 74%
    22:00 +7°C° 0 mm 1 m/s 767 mmHg 77%
    23:00 +6°C° 0 mm 1 m/s 767 mmHg 78%

    26 Août, Lundi

    Heure Température Précipitation Vent Pression Humidité
    00:00 +6°C° 0 mm 1 m/s 767 mmHg 79%
    01:00 +6°C° 0 mm 1 m/s 767 mmHg 80%
    02:00 +6°C° 0 mm 1 m/s 767 mmHg 79%
    03:00 +6°C° 0 mm 1 m/s 767 mmHg 79%
    04:00 +7°C° 0 mm 1 m/s 767 mmHg 79%
    05:00 +6°C° 0 mm 1 m/s 767 mmHg 80%
    06:00 +5°C° 0 mm 2 m/s 768 mmHg 82%
    07:00 +5°C° 0 mm 2 m/s 768 mmHg 84%
    08:00 +7°C° 0 mm 2 m/s 768 mmHg 79%
    09:00 +8°C° 0 mm 2 m/s 768 mmHg 74%
    10:00 +10°C° 0 mm 2 m/s 768 mmHg 69%
    11:00 +12°C° 0 mm 2 m/s 768 mmHg 66%
    12:00 +13°C° 0 mm 2 m/s 768 mmHg 63%
    13:00 +14°C° 0 mm 2 m/s 767 mmHg 59%
    14:00 +12°C° 0 mm 3 m/s 767 mmHg 61%
    15:00 +12°C° 0 mm 3 m/s 767 mmHg 62%
    16:00 +12°C° 0 mm 4 m/s 767 mmHg 63%
    17:00 +11°C° 0 mm 3 m/s 767 mmHg 69%
    18:00 +10°C° 0 mm 3 m/s 768 mmHg 74%
    19:00 +9°C° 0 mm 2 m/s 768 mmHg 80%
    20:00 +8°C° 0 mm 2 m/s 769 mmHg 81%
    21:00 +8°C° 0 mm 1 m/s 769 mmHg 83%
    22:00 +8°C° 0 mm 1 m/s 769 mmHg 84%
    23:00 +8°C° 0 mm 1 m/s 769 mmHg 85%
    Voir plus